Regional Weather Roundup
Issued by NWS Goodland, KS

Home | Current Version | Previous Version | Text Only | Print | Product List | Glossary Off
Versions: 1 2 3 4 5 6 7 8 9 10 11 12 13 14 15 16 17 18 19 20 21 22 23 24 25 26 27 28 29 30 31 32 33 34 35 36 37 38 39 40 41 42 43 44 45 46 47 48 49 50

000
ASUS43 KGLD 301208
RWRGLD

GOODLAND FORECAST AREA HOURLY WEATHER ROUNDUP
NATIONAL WEATHER SERVICE GOODLAND KS
600 AM MDT WED JUL 30 2014

...OFFICIAL OBSERVATIONS...

CITY           SKY/WX    TMP DP  RH WIND       PRES   REMARKS
GOODLAND KS    LGT RAIN  60  58  92 NE10      30.20R
HILL CITY KS   CLOUDY    66  58  75 E10       30.15R
IMPERIAL NEB   CLOUDY    63  60  90 SE5       30.21R
MCCOOK NEB     CLOUDY    63  62  97 N6        30.19R FOG
AKRON CO       LGT RAIN  59  58  96 E9        30.26R FOG
BURLINGTON CO  CLOUDY    60  57  89 NE16G24   30.21R
LIMON CO       CLOUDY    58  57  97 NE13      30.26S
$$

...UNOFFICIAL OBSERVATIONS...

CITY           SKY/WX    TMP DP  RH WIND       PRES   REMARKS
GOVE KS          N/A     62  32  32 MISG        N/A
LENORA KS        N/A     63  32  31 MISG        N/A
OBERLIN KS     CLOUDY    63  61  94 E5        30.17R
ST FRANCIS KS  LGT RAIN  59  57  94 E20       30.20R
TRIBUNE KS     CLOUDY    63 N/A N/A N14       30.14R
WAKEENEY KS      N/A     65  55  69 MISG        N/A
TRENTON NEB      N/A     62  32  32 CALM        N/A
KIT CARSON CO    N/A     61  58  88 NE17        N/A
YUMA CO          N/A     60  60 100 E7          N/A
$$



USA.gov is the U.S. government's official web portal to all federal, state and local government web resources and services.